EW5738 Weather Reports


Display with metric or nautical units.
time (UTC)temp
F
wind
direction
speed
MPH
gust
MPH
rain 1hr
in
rain 24hr
in
rain mn
in
humidity
%
barometer
mb
20260510104610 66 178 0.0 5.0 0.00 0.00 0.00 78 1028.3
20260510103050 66 211 2.0 5.0 0.00 0.00 0.00 78 1028.1
20260510101547 66 213 1.0 4.0 0.00 0.00 0.00 79 1027.9
20260510100047 65 295 0.0 4.0 0.00 0.00 0.00 79 1027.7
20260510094546 66 218 2.0 6.0 0.00 0.00 0.00 80 1027.7
20260510093044 67 184 2.0 5.0 0.00 0.00 0.00 78 1027.2
20260510091543 67 178 0.0 4.0 0.00 0.00 0.00 77 1027.0
20260510090043 68 178 2.0 6.0 0.00 0.00 0.00 76 1027.2
20260510084543 68 138 2.0 4.0 0.00 0.00 0.00 75 1027.2
20260510083042 69 203 2.0 8.0 0.00 0.00 0.00 74 1027.2
20260510081545 69 127 3.0 8.0 0.00 0.00 0.00 73 1026.8
20260510080141 69 155 3.0 8.0 0.00 0.00 0.00 72 1026.9
20260510074540 70 126 4.0 10.0 0.00 0.00 0.00 71 1026.7
20260510073038 70 123 4.0 9.0 0.00 0.00 0.00 71 1026.5
20260510071538 70 130 2.0 8.0 0.00 0.00 0.00 70 1026.3
20260510070039 71 122 5.0 11.0 0.00 0.00 0.00 69 1026.1
20260510064636 71 135 4.0 14.0 0.00 0.00 0.00 70 1026.0
20260510063034 72 83 4.0 11.0 0.00 0.00 0.00 70 1025.7
20260510061537 72 178 3.0 9.0 0.00 0.00 0.00 68 1025.5
20260510060045 73 132 6.0 13.0 0.00 0.00 0.00 67 1025.4
20260510054531 73 133 4.0 12.0 0.00 0.00 0.00 67 1025.2
20260510053031 74 117 4.0 11.0 0.00 0.00 0.00 66 1025.2
20260510051529 74 115 5.0 11.0 0.00 0.00 0.00 65 1025.1
20260510050032 74 76 5.0 12.0 0.00 0.00 0.00 63 1025.2
20260510044526 74 148 4.0 12.0 0.00 0.00 0.00 63 1025.3
20260510043025 75 144 3.0 9.0 0.00 0.00 0.00 64 1025.2
20260510041529 75 101 3.0 10.0 0.00 0.00 0.00 63 1025.1
20260510040024 75 96 5.0 12.0 0.00 0.00 0.00 63 1025.2
20260510034521 75 168 4.0 10.0 0.00 0.00 0.00 63 1025.2
20260510033019 75 112 6.0 13.0 0.00 0.00 0.00 64 1025.2
20260510031518 75 210 2.0 7.0 0.00 0.00 0.00 65 1025.2
20260510030016 75 174 3.0 10.0 0.00 0.00 0.00 65 1025.4
20260510024514 77 163 2.0 11.0 0.00 0.00 0.00 63 1025.6
20260510023029 76 126 4.0 13.0 0.00 0.00 0.00 62 1025.7
20260510021507 75 137 4.0 9.0 0.00 0.00 0.00 64 1025.7
20260510020005 74 172 5.0 13.0 0.00 0.00 0.00 65 1025.9
20260510014501 74 132 5.0 12.0 0.00 0.00 0.00 65 1026.3
20260510013057 72 167 4.0 11.0 0.00 0.00 0.00 67 1026.7
20260510011611 72 212 5.0 12.0 0.00 0.00 0.00 67 1026.9
20260510010105 72 181 4.0 10.0 0.00 0.00 0.00 68 1027.1
20260510004550 71 190 2.0 8.0 0.00 0.00 0.00 69 1027.3
20260510003047 70 200 1.0 8.0 0.00 0.00 0.00 69 1027.5
20260510001546 70 197 4.0 9.0 0.00 0.00 0.00 69 1027.6
20260510000048 70 190 4.0 7.0 0.00 0.00 0.00 71 1027.7
20260509234540 69 286 2.0 8.0 0.00 0.00 0.00 72 1027.7
20260509233035 68 207 2.0 7.0 0.00 0.00 0.00 71 1027.7
20260509231531 67 167 1.0 10.0 0.00 0.00 0.00 72 1027.6
20260509230027 66 114 2.0 10.0 0.00 0.00 0.00 74 1027.3
20260509224525 65 167 5.0 8.0 0.00 0.00 0.00 73 1027.1
20260509223025 65 178 1.0 10.0 0.00 0.00 0.00 74 1027.0
20260509221518 64 51 3.0 11.0 0.00 0.00 0.00 75 1026.9
20260509220016 63 206 1.0 6.0 0.00 0.00 0.00 76 1026.7
20260509214511 62 140 2.0 4.0 0.00 0.00 0.00 78 1026.6
20260509213006 60 46 1.0 3.0 0.00 0.00 0.00 79 1026.4
20260509211502 59 89 0.0 5.0 0.00 0.00 0.00 82 1026.4
20260509204603 56 142 2.0 4.0 0.00 0.00 0.00 85 1025.7
20260509203059 55 286 1.0 3.0 0.00 0.00 0.00 86 1025.6
20260509201552 55 219 2.0 5.0 0.00 0.00 0.00 86 1025.4
20260509200051 55 187 3.0 5.0 0.00 0.00 0.00 84 1025.3
20260509194550 56 178 1.0 3.0 0.00 0.00 0.00 82 1025.3
20260509193047 56 234 1.0 3.0 0.00 0.00 0.00 83 1025.3
20260509191546 55 20 1.0 3.0 0.00 0.00 0.00 85 1025.0
20260509190049 56 166 1.0 4.0 0.00 0.00 0.00 84 1024.9
20260509184547 56 156 1.0 4.0 0.00 0.00 0.00 84 1024.7
20260509183044 56 46 0.0 3.0 0.00 0.00 0.00 83 1024.7
20260509181545 56 321 1.0 2.0 0.00 0.00 0.00 84 1024.7
20260509180042 55 283 2.0 4.0 0.00 0.00 0.00 85 1024.6
20260509174640 56 286 2.0 4.0 0.00 0.00 0.00 85 1024.6
20260509173038 56 197 0.0 2.0 0.00 0.00 0.00 82 1024.7
20260509171538 58 135 0.0 2.0 0.00 0.00 0.00 80 1024.7
20260509170036 56 135 0.0 2.0 0.00 0.00 0.00 84 1024.5
20260509164535 57 295 1.0 2.0 0.00 0.00 0.00 83 1024.6
20260509163047 56 314 1.0 2.0 0.00 0.00 0.00 85 1024.7
20260509161532 56 319 1.0 2.0 0.00 0.00 0.00 86 1024.8
20260509160031 55 331 0.0 3.0 0.00 0.00 0.00 89 1024.7
20260509154530 54 324 0.0 3.0 0.00 0.00 0.00 90 1024.7
20260509153026 54 1 0.0 3.0 0.00 0.00 0.00 89 1024.7
20260509151523 55 283 0.0 2.0 0.00 0.00 0.00 87 1025.0
20260509150019 56 201 1.0 3.0 0.00 0.00 0.00 86 1025.0
20260509144516 57 178 1.0 2.0 0.00 0.00 0.00 84 1024.9
20260509143015 58 46 0.0 1.0 0.00 0.00 0.00 84 1024.9
20260509141514 57 169 2.0 3.0 0.00 0.00 0.00 85 1024.9
20260509140012 57 284 1.0 3.0 0.00 0.00 0.00 85 1024.9
20260509134508 57 303 4.0 8.0 0.00 0.00 0.00 87 1024.9
20260509133007 57 286 2.0 5.0 0.00 0.00 0.00 86 1025.1
20260509131506 57 297 3.0 4.0 0.00 0.00 0.00 86 1025.2
20260509130012 56 283 2.0 5.0 0.00 0.00 0.00 87 1025.2
20260509124505 57 317 2.0 4.0 0.00 0.00 0.00 85 1025.1
20260509123057 57 314 3.0 5.0 0.00 0.00 0.00 84 1025.1
20260509121556 58 286 2.0 4.0 0.00 0.00 0.00 83 1025.2
20260509120056 59 297 2.0 5.0 0.00 0.00 0.00 82 1025.2
20260509114600 58 311 3.0 6.0 0.00 0.00 0.00 83 1025.3
20260509113055 59 303 2.0 5.0 0.00 0.00 0.00 82 1025.3
20260509111554 58 311 3.0 5.0 0.00 0.00 0.00 83 1025.2
20260509110057 59 301 2.0 4.0 0.00 0.00 0.00 82 1025.2